Location: Asheville, NC
(35.6000°N, 82.5500°W)
Time: 13:00:15
(UTC-05:00)

Vanguard 2 Rocket - Pass Details

Date: 08 December 2017
Orbit: 556 x 3326 km, 32.9° (Epoch: 16 January)

Event Time Altitude Azimuth Distance (km) Brightness Sun altitude
Rises 17:58:49 0° 192° (SSW) 4,826 11.1 -8.6°
Reaches altitude 10° 18:02:37 10° 177° (S) 4,260 10.6 -9.3°
Maximum altitude 18:11:28 23° 131° (SE) 4,134 10.0 -10.9°
Enters shadow 18:22:31 11° 90° (E) 5,763 10.4 -13.1°
Drops below altitude 10° 18:23:23 10° 88° (E) 5,927 - -13.2°
Sets 18:30:01 0° 77° (ENE) 7,207 - -14.5°
